Weather History for Makkah, Saudi Arabia

Change the Weather History Date:

Friday, October 26, 2012

  Actual Average Record
Temperature  
Mean Temperature 90 °F -  
Max Temperature 102 °F 99 °F 107 °F (2010)
Min Temperature 79 °F 75 °F 53 °F (1998)
Cooling Degree Days 26    
Growing Degree Days 40 (Base 50)    
Moisture  
Dew Point 67 °F    
Average Humidity 48    
Maximum Humidity 70    
Minimum Humidity 17    
Precipitation  
Precipitation 0.00 in - - ()
Sea Level Pressure  
Sea Level Pressure 29.77 in    
Wind  
Wind Speed 1 mph ()    
Max Wind Speed 5 mph    
Max Gust Speed -    
Visibility 6.0 miles    
Events      
Averages and records for this station are not official NWS values.
T = Trace of Precipitation, MM = Missing Value Source: Averaged Metar Reports

Daily Weather History Graph

Daily Weather History Graph

Search for Another Location

Airport:

Trip Planner

Search our weather history database for the weather conditions in past years. The results will help you decide how hot, cold, wet, or windy it might be!

Date:

Astronomy

Oct. 26, 2012 Rise Set
Actual Time 6:20 AM AST 5:47 PM AST
Civil Twilight 5:57 AM AST 6:09 PM AST
Nautical Twilight 5:31 AM AST 6:36 PM AST
Astronomical Twilight 5:05 AM AST 7:02 PM AST
Moon 3:34 PM AST (10/26) 3:16 AM AST (10/26)
Length of Visible Light 12h 12m
Length of Day
11h 26m
Waxing Gibbous, 89% of the Moon is Illuminated
Oct 26
Waxing Gibbous
Oct 29
Full
Nov 7
Last Quarter
Nov 14
New
Nov 20
First Quarter

Hourly Weather History & Observations

Time (AST) Temp. Heat Index Dew Point Humidity Pressure Visibility Wind Dir Wind Speed Gust Speed Precip Events Conditions
12:00 AM 85 °F - 72 °F 56% 29.73 in 6 mi Calm Calm - -  
12:00 AM 84.2 °F 89.6 °F 71.6 °F 66% 29.77 in - Calm Calm - N/A   Clear
1:00 AM 84.2 °F 88.4 °F 69.8 °F 62% 29.77 in - Calm Calm - N/A   Clear
2:00 AM 84.2 °F 88.4 °F 69.8 °F 62% 29.77 in - Calm Calm - N/A   Clear
3:00 AM 83 °F - 70 °F 56% 29.72 in 6 mi Calm Calm - -  
3:00 AM 82.4 °F 86.3 °F 69.8 °F 66% 29.77 in - Calm Calm - N/A   Clear
4:00 AM 82.4 °F 86.3 °F 69.8 °F 66% 29.77 in - Calm Calm - N/A   Clear
5:00 AM 82.4 °F 86.3 °F 69.8 °F 66% 29.77 in - Calm Calm - N/A   Clear
6:00 AM 81 °F - 70 °F 61% 29.74 in 6 mi Calm Calm - -  
6:00 AM 80.6 °F 83.9 °F 69.8 °F 70% 29.77 in - Calm Calm - N/A   Clear
7:00 AM 80.6 °F 83.9 °F 69.8 °F 70% 29.80 in - Calm Calm - N/A   Clear
8:00 AM 82.4 °F 86.3 °F 69.8 °F 66% 29.80 in - Calm Calm - N/A   Clear
9:00 AM 88 °F - 70 °F 46% 29.77 in 6 mi Calm Calm - -  
9:00 AM 87.8 °F 92.6 °F 69.8 °F 55% 29.80 in - Calm Calm - N/A   Clear
10:00 AM 93.2 °F 100.5 °F 71.6 °F 49% 29.80 in - Calm Calm - N/A   Clear
11:00 AM 95.0 °F 101.3 °F 69.8 °F 44% 29.80 in - Calm Calm - N/A   Clear
12:00 PM 97 °F - 63 °F 23% 29.76 in 6 mi SSW 3.5 mph - -  
12:00 PM 96.8 °F 98.0 °F 62.6 °F 32% 29.80 in - SSW 3.5 mph - N/A   Clear
1:00 PM 98.6 °F 99.4 °F 60.8 °F 29% 29.80 in - SSW 3.5 mph - N/A   Clear
2:00 PM 100.4 °F 101.3 °F 60.8 °F 27% 29.77 in - South 3.5 mph - N/A   Clear
3:00 PM 100 °F - 59 °F 17% 29.73 in 6 mi South 4.6 mph - -   Scattered Clouds
3:00 PM 100.4 °F 100.2 °F 59.0 °F 25% 29.77 in 6.2 mi South 4.6 mph - N/A   Partly Cloudy
4:00 PM 98.6 °F 101.0 °F 64.4 °F 32% 29.74 in 6.2 mi NW 3.5 mph - N/A   Scattered Clouds
5:00 PM 95.0 °F 98.5 °F 66.2 °F 39% 29.74 in - SW 4.6 mph - N/A   Clear
6:00 PM 92 °F - 66 °F 33% 29.71 in 6 mi West 3.5 mph - -   Clear
6:00 PM 93.2 °F 96.2 °F 66.2 °F 41% 29.74 in - West 3.5 mph - N/A   Clear
7:00 PM 91.4 °F 93.2 °F 64.4 °F 41% 29.77 in - NW 3.5 mph - N/A   Clear
8:00 PM 89.6 °F 91.1 °F 64.4 °F 43% 29.80 in - Calm Calm - N/A   Clear
9:00 PM 88 °F - 64 °F 35% 29.79 in 6 mi Calm Calm - -  
9:00 PM 87.8 °F 89.4 °F 64.4 °F 46% 29.83 in - Calm Calm - N/A   Clear
10:00 PM 87.8 °F 90.4 °F 66.2 °F 49% 29.83 in - Calm Calm - N/A   Clear
11:00 PM 86.0 °F 88.2 °F 66.2 °F 51% 29.80 in - Calm Calm - N/A   Clear